DIRECTV 15

Last updated on Wed Jul 09 2025 00:02:45 GMT+0000 (Coordinated Universal Time)

1 40663U 15026A 25189.39981265 -.00000086 00000+0 00000+0 0 9994 2 40663 0.0142 57.3778 0000635 0.2967 269.9951 1.00272917 37014
UTC large
Height (km)
Speed (km/s)
/
Latitude / Longitude
Inclination (degrees)
Orbital Period (minutes)
Azimuth
Elevation
Range (km)
Doppler Factor

Next 0 passes for location: London (51.5072 / 0.1276)

Sorry there are no passes over London.